Location: Quebec
(46.8000°N, 71.2500°W)
Time: 23:34:00
(UTC-04:00)

ISS - Pass Details

Date: 15 October 2017
Orbit: 401 x 408 km, 51.6° (Epoch: 20 October)

Event Time Altitude Azimuth Distance (km) Brightness Sun altitude
Rises 18:33:34 0° 292° (WNW) 2,325 1.3 -6.9°
Reaches altitude 10° 18:35:45 10° 284° (WNW) 1,463 0.4 -7.3°
Maximum altitude 18:38:46 35° 216° (SW) 679 -2.3 -7.8°
Drops below altitude 10° 18:41:47 10° 149° (SSE) 1,459 -1.3 -8.3°
Enters shadow 18:43:57 - 140° (SE) 2,313 -0.3 -8.7°
